Location: Newark
(44.6028°N, 124.0883°W)
Time: 18:32:49
(UTC+00:00)

Vanguard 1 Rocket - Pass Details

Date: 25 October 2019
Orbit: 651 x 4225 km, 34.3° (Epoch: 11 November)

Event Time Altitude Azimuth Distance (km) Brightness Sun altitude
Rises 21:09:38 0° 270° (W) 6,001 11.8 31.0°
Reaches altitude 10° 21:12:58 10° 266° (W) 5,372 11.7 30.8°
Maximum altitude 21:30:20 57° 194° (SSW) 4,187 12.1 29.6°
Drops below altitude 10° 21:55:23 10° 124° (SE) 7,364 12.1 27.5°
Sets 22:01:03 0° 121° (ESE) 8,236 12.3 26.9°
